Home   Weather   Troisdorf   Past weeks

Flag for Germany Past Weather in Troisdorf, North Rhine-Westphalia, Germany — Yesterday and Last 2 Weeks

Now
68 °F

Light rain. Partly sunny.


Feels Like: 68 °F
Forecast: 61 / 69 °F
Wind: 7 mph from South

Location: Koeln / Bonn

Current Time: Aug 17, 2017 at 8:00:36 pm

Latest Report: Aug 17, 2017 at 7:20 pm


Visibility: N/A

Pressure: 30.01 "Hg

Humidity: 88%

Dew Point: 64 °F

Location of TroisdorfLocation

Past Weather in Troisdorf — Graph

°F

Troisdorf Temperature Yesterday

Maximum temperature yesterday: 77 °F (at 2:20 pm)
Minimum temperature yesterday: 63 °F (at 1:20 am)
Average temperature yesterday: 68 °F

High & Low Weather Summary for the Past Weeks

 TemperatureHumidityPressure
High81 °F (Aug 3, 4:50 pm)100% (Aug 2, 10:50 pm)30.24 "Hg (Aug 2, 10:50 pm)
Low48 °F (Aug 7, 3:50 am)36% (Aug 7, 1:20 pm)29.77 "Hg (Aug 8, 10:50 am)
Average64 °F80%30.03 "Hg
* Reported Aug 2 6:20 pm — Aug 17 6:50 pm, Troisdorf. Weather by CustomWeather, © 2017

Note: Actual official high and low records may vary slightly from our data, if they occured in-between our weather recording intervals... More about our weather records

Advertising

Troisdorf Weather History for the Previous 24 Hours

Scroll right to see more
 ConditionsComfort  
Time TempWeatherWind HumidityBarometerVisibility
6:50 pm
Thu, Aug 17
68 °FPartly sunny.7 mph94%29.98 "HgN/A
6:20 pm70 °FBroken clouds.3 mph78%30.01 "HgN/A
5:50 pm70 °FPartly sunny.3 mph83%30.01 "HgN/A
5:20 pm68 °FPartly sunny.5 mph88%30.01 "HgN/A
4:50 pm68 °FPartly sunny.3 mph88%30.01 "HgN/A
4:20 pm68 °FLight rain. Partly sunny.3 mph88%30.01 "HgN/A
3:50 pm68 °FLight rain. Partly sunny.3 mph88%30.01 "HgN/A
2:50 pm70 °FLight rain. Broken clouds.12 mph78%30.01 "HgN/A
2:20 pm73 °FLight rain. Partly sunny.10 mph61%30.01 "HgN/A
1:50 pm75 °FPartly sunny.12 mph57%30.01 "HgN/A
1:20 pm73 °FPartly sunny.13 mph61%29.98 "HgN/A
12:50 pm75 °FPartly sunny.15 mph61%30.01 "HgN/A
12:20 pm75 °FBroken clouds.12 mph69%30.01 "HgN/A
11:50 am73 °FSunny.12 mph69%30.01 "Hg10 mi
11:20 am72 °FSunny.10 mph73%30.04 "Hg10 mi
10:50 am72 °FSunny.10 mph73%30.04 "Hg10 mi
10:20 am70 °FSunny.9 mph78%30.04 "Hg10 mi
9:50 am68 °FSunny.7 mph78%30.04 "Hg10 mi
9:20 am68 °FPassing clouds.7 mph78%30.04 "HgN/A
8:50 am66 °FSunny.7 mph83%30.04 "Hg10 mi
8:20 am66 °FPassing clouds.3 mph83%30.04 "HgN/A
7:50 am63 °FPassing clouds.5 mph88%30.04 "HgN/A
7:20 am63 °FPassing clouds.5 mph88%30.04 "HgN/A
6:50 am61 °FPassing clouds.6 mph94%30.04 "HgN/A
6:20 am61 °FFog.2 mph94%30.04 "HgN/A
5:50 am59 °FFog.No wind94%30.07 "HgN/A
5:20 am61 °FFog.3 mph94%30.07 "HgN/A
5:02 am61 °FFog.2 mph94%30.07 "HgN/A
4:50 am61 °FFog.1 mph94%30.07 "HgN/A
4:20 am61 °FPassing clouds.2 mph94%30.07 "HgN/A
3:50 am63 °FPassing clouds.1 mph88%30.07 "HgN/A
3:20 am63 °FPassing clouds.3 mph88%30.07 "HgN/A
2:50 am63 °FPassing clouds.3 mph88%30.07 "HgN/A
1:50 am64 °FPassing clouds.3 mph83%30.07 "HgN/A
1:20 am64 °FClear.6 mph83%30.09 "Hg10 mi
12:50 am64 °FClear.7 mph83%30.07 "Hg10 mi
12:20 am64 °FClear.5 mph88%30.07 "Hg10 mi
11:50 pm
Wed, Aug 16
66 °FClear.3 mph83%30.09 "Hg10 mi
11:20 pm64 °FPassing clouds.1 mph88%30.09 "HgN/A
10:50 pm66 °FPassing clouds.3 mph83%30.09 "HgN/A
10:20 pm68 °FPassing clouds.3 mph78%30.09 "HgN/A
9:50 pm68 °FPassing clouds.3 mph78%30.09 "HgN/A
8:50 pm70 °FClear.5 mph73%30.09 "Hg10 mi
8:20 pm70 °FSunny.6 mph73%30.09 "Hg10 mi
Weather by CustomWeather, © 2017

See weather overviewHow to use our weather pages